| time (UTC) | temp F | wind direction | speed MPH | gust MPH | rain 1hr in | rain 24hr in | rain mn in | humidity % | barometer mb |
| 20260504140406 | 53 | 182 | 2.0 | 5.0 | 0.00 | 0.00 | 0.00 | 85 | 1012.7 |
| 20260504140401 | 53 | 205 | 1.0 | 5.0 | 0.00 | 0.00 | 0.00 | 85 | 1012.7 |
| 20260504130738 | 53 | 204 | 2.0 | 10.0 | 0.00 | 0.00 | 0.00 | 84 | 1012.2 |
| 20260504130233 | 53 | 220 | 2.0 | 6.0 | 0.00 | 0.00 | 0.00 | 84 | 1012.2 |
| 20260504110520 | 53 | 180 | 0.0 | 3.0 | 0.00 | 0.00 | 0.00 | 82 | 1012.3 |
| 20260504081702 | 55 | 178 | 2.0 | 5.0 | 0.00 | 0.00 | 0.00 | 77 | 1012.2 |
| 20260504081658 | 55 | 201 | 2.0 | 5.0 | 0.00 | 0.00 | 0.00 | 77 | 1012.1 |
| 20260504080658 | 55 | 206 | 2.0 | 4.0 | 0.00 | 0.00 | 0.00 | 77 | 1012.2 |
| 20260504080640 | 55 | 180 | 1.0 | 2.0 | 0.00 | 0.00 | 0.00 | 77 | 1012.2 |
| 20260504060109 | 57 | 169 | 1.0 | 0.0 | 0.00 | 0.00 | 0.00 | 74 | 1012.2 |
| 20260504050356 | 59 | 236 | 3.0 | 7.0 | 0.00 | 0.00 | 0.00 | 68 | 1011.6 |
| 20260504045852 | 59 | 236 | 2.0 | 5.0 | 0.00 | 0.00 | 0.00 | 67 | 1011.5 |
| 20260504045351 | 60 | 218 | 1.0 | 4.0 | 0.00 | 0.00 | 0.00 | 67 | 1011.6 |
| 20260504044851 | 60 | 223 | 1.0 | 3.0 | 0.00 | 0.00 | 0.00 | 67 | 1011.5 |
| 20260504044335 | 60 | 227 | 1.0 | 4.0 | 0.00 | 0.00 | 0.00 | 66 | 1011.5 |
| 20260504044330 | 60 | 226 | 1.0 | 3.0 | 0.00 | 0.00 | 0.00 | 67 | 1011.5 |
| 20260504043334 | 60 | 231 | 2.0 | 6.0 | 0.00 | 0.00 | 0.00 | 66 | 1011.4 |
| 20260504043328 | 60 | 233 | 4.0 | 7.0 | 0.00 | 0.00 | 0.00 | 66 | 1011.4 |
| 20260504042329 | 60 | 230 | 4.0 | 11.0 | 0.00 | 0.00 | 0.00 | 66 | 1011.2 |
| 20260504041834 | 61 | 234 | 4.0 | 11.0 | 0.00 | 0.00 | 0.00 | 65 | 1011.2 |
| 20260504041344 | 61 | 236 | 4.0 | 7.0 | 0.00 | 0.00 | 0.00 | 65 | 1011.2 |
| 20260504040828 | 61 | 255 | 3.0 | 6.0 | 0.00 | 0.00 | 0.00 | 65 | 1011.1 |
| 20260504040329 | 61 | 214 | 3.0 | 4.0 | 0.00 | 0.00 | 0.00 | 65 | 1011.2 |
| 20260504035056 | 61 | 232 | 5.0 | 2.0 | 0.00 | 0.00 | 0.00 | 64 | 1011.0 |
| 20260504033800 | 62 | 246 | 5.0 | 10.0 | 0.00 | 0.00 | 0.00 | 63 | 1010.8 |
| 20260504033754 | 61 | 254 | 5.0 | 9.0 | 0.00 | 0.00 | 0.00 | 64 | 1010.9 |
| 20260504032756 | 62 | 206 | 5.0 | 11.0 | 0.00 | 0.00 | 0.00 | 63 | 1010.7 |
| 20260504032253 | 62 | 244 | 5.0 | 11.0 | 0.00 | 0.00 | 0.00 | 63 | 1010.6 |
| 20260504031757 | 62 | 229 | 4.0 | 6.0 | 0.00 | 0.00 | 0.00 | 62 | 1010.7 |
| 20260504030355 | 63 | 232 | 6.0 | 11.0 | 0.00 | 0.00 | 0.00 | 61 | 1010.5 |
| 20260504025855 | 63 | 236 | 5.0 | 12.0 | 0.00 | 0.00 | 0.00 | 60 | 1010.5 |
| 20260504025353 | 64 | 257 | 5.0 | 12.0 | 0.00 | 0.00 | 0.00 | 60 | 1010.4 |
| 20260504024854 | 64 | 257 | 5.0 | 10.0 | 0.00 | 0.00 | 0.00 | 60 | 1010.4 |
| 20260504024357 | 64 | 238 | 5.0 | 10.0 | 0.00 | 0.00 | 0.00 | 60 | 1010.3 |
| 20260504024352 | 64 | 240 | 4.0 | 8.0 | 0.00 | 0.00 | 0.00 | 59 | 1010.3 |
| 20260504023351 | 65 | 241 | 4.0 | 9.0 | 0.00 | 0.00 | 0.00 | 59 | 1010.3 |
| 20260504022852 | 65 | 262 | 5.0 | 9.0 | 0.00 | 0.00 | 0.00 | 58 | 1010.1 |
| 20260504022353 | 65 | 253 | 5.0 | 3.0 | 0.00 | 0.00 | 0.00 | 58 | 1010.2 |
| 20260504021159 | 65 | 248 | 4.0 | 10.0 | 0.00 | 0.00 | 0.00 | 57 | 1010.2 |
| 20260504020701 | 65 | 246 | 5.0 | 11.0 | 0.00 | 0.00 | 0.00 | 57 | 1010.3 |
| 20260504020159 | 66 | 225 | 5.0 | 11.0 | 0.00 | 0.00 | 0.00 | 57 | 1010.3 |
| 20260504015659 | 66 | 225 | 5.0 | 10.0 | 0.00 | 0.00 | 0.00 | 56 | 1010.3 |
| 20260504015205 | 67 | 248 | 5.0 | 3.0 | 0.00 | 0.00 | 0.00 | 56 | 1010.3 |
| 20260504014333 | 68 | 237 | 4.0 | 9.0 | 0.00 | 0.00 | 0.00 | 54 | 1010.0 |
| 20260504013329 | 68 | 229 | 4.0 | 9.0 | 0.00 | 0.00 | 0.00 | 54 | 1009.9 |
| 20260504012824 | 68 | 234 | 4.0 | 9.0 | 0.00 | 0.00 | 0.00 | 54 | 1009.9 |
| 20260504012321 | 68 | 232 | 3.0 | 7.0 | 0.00 | 0.00 | 0.00 | 53 | 1010.1 |
| 20260504012229 | 69 | 232 | 3.0 | 9.0 | 0.00 | 0.00 | 0.00 | 53 | 1010.0 |
| 20260504011428 | 69 | 237 | 4.0 | 10.0 | 0.00 | 0.00 | 0.00 | 54 | 1010.1 |
| 20260504010220 | 69 | 233 | 4.0 | 10.0 | 0.00 | 0.00 | 0.00 | 53 | 1010.1 |
| 20260504005724 | 69 | 213 | 3.0 | 10.0 | 0.00 | 0.00 | 0.00 | 54 | 1010.2 |
| 20260504005223 | 68 | 240 | 3.0 | 0.0 | 0.00 | 0.00 | 0.00 | 54 | 1010.1 |
| 20260504004343 | 68 | 245 | 2.0 | 3.0 | 0.00 | 0.00 | 0.00 | 55 | 1009.9 |
| 20260504003838 | 68 | 198 | 4.0 | 6.0 | 0.00 | 0.00 | 0.00 | 55 | 1009.9 |
| 20260504002117 | 68 | 178 | 1.0 | 5.0 | 0.00 | 0.00 | 0.00 | 56 | 1009.9 |
| 20260504001602 | 68 | 235 | 1.0 | 5.0 | 0.00 | 0.00 | 0.00 | 55 | 1009.9 |
| 20260504001039 | 68 | 205 | 2.0 | 3.0 | 0.00 | 0.00 | 0.00 | 56 | 1009.9 |
| 20260504000539 | 68 | 227 | 3.0 | 3.0 | 0.00 | 0.00 | 0.00 | 56 | 1009.8 |
| 20260503235310 | 68 | 223 | 2.0 | 5.0 | 0.00 | 0.00 | 0.00 | 58 | 1010.0 |
| 20260503234815 | 67 | 219 | 1.0 | 2.0 | 0.00 | 0.00 | 0.00 | 58 | 1010.0 |
| 20260503233242 | 67 | 194 | 1.0 | 4.0 | 0.00 | 0.00 | 0.00 | 58 | 1010.5 |
| 20260503232739 | 66 | 180 | 1.0 | 3.0 | 0.00 | 0.00 | 0.00 | 58 | 1010.6 |
| 20260503232234 | 67 | 178 | 1.0 | 3.0 | 0.00 | 0.00 | 0.00 | 58 | 1010.6 |
| 20260503231722 | 67 | 179 | 1.0 | 6.0 | 0.00 | 0.00 | 0.00 | 58 | 1010.6 |
| 20260503231235 | 67 | 221 | 3.0 | 6.0 | 0.00 | 0.00 | 0.00 | 58 | 1010.5 |
| 20260503230720 | 66 | 236 | 5.0 | 2.0 | 0.00 | 0.00 | 0.00 | 58 | 1010.5 |
| 20260503230431 | 66 | 237 | 4.0 | 10.0 | 0.00 | 0.00 | 0.00 | 59 | 1010.6 |
| 20260503224922 | 66 | 245 | 4.0 | 10.0 | 0.00 | 0.00 | 0.00 | 58 | 1010.5 |
| 20260503224424 | 66 | 202 | 5.0 | 9.0 | 0.00 | 0.00 | 0.00 | 59 | 1010.4 |
| 20260503224420 | 67 | 219 | 4.0 | 9.0 | 0.00 | 0.00 | 0.00 | 58 | 1010.4 |
| 20260503223420 | 66 | 242 | 5.0 | 5.0 | 0.00 | 0.00 | 0.00 | 58 | 1010.5 |
| 20260503222451 | 66 | 225 | 3.0 | 7.0 | 0.00 | 0.00 | 0.00 | 58 | 1010.5 |
| 20260503221454 | 66 | 216 | 4.0 | 8.0 | 0.00 | 0.00 | 0.00 | 59 | 1010.3 |
| 20260503221450 | 67 | 245 | 3.0 | 7.0 | 0.00 | 0.00 | 0.00 | 58 | 1010.5 |
| 20260503220449 | 66 | 234 | 4.0 | 8.0 | 0.00 | 0.00 | 0.00 | 59 | 1010.2 |
| 20260503215949 | 65 | 240 | 5.0 | 10.0 | 0.00 | 0.00 | 0.00 | 60 | 1010.2 |
| 20260503215449 | 65 | 226 | 6.0 | 11.0 | 0.00 | 0.00 | 0.00 | 59 | 1010.2 |
| 20260503214954 | 66 | 228 | 5.0 | 7.0 | 0.00 | 0.00 | 0.00 | 59 | 1010.3 |
| 20260503214950 | 65 | 215 | 5.0 | 11.0 | 0.00 | 0.00 | 0.00 | 59 | 1010.2 |
| 20260503213947 | 66 | 236 | 6.0 | 7.0 | 0.00 | 0.00 | 0.00 | 59 | 1010.3 |
| 20260503212715 | 66 | 227 | 3.0 | 10.0 | 0.00 | 0.00 | 0.00 | 58 | 1010.3 |
| 20260503212216 | 66 | 205 | 3.0 | 7.0 | 0.00 | 0.00 | 0.00 | 59 | 1010.5 |
| 20260503211711 | 66 | 227 | 4.0 | 7.0 | 0.00 | 0.00 | 0.00 | 58 | 1010.5 |
| 20260503211212 | 66 | 227 | 3.0 | 7.0 | 0.00 | 0.00 | 0.00 | 59 | 1010.5 |
| 20260503210710 | 65 | 236 | 4.0 | 6.0 | 0.00 | 0.00 | 0.00 | 59 | 1010.5 |
| 20260503210210 | 65 | 251 | 5.0 | 4.0 | 0.00 | 0.00 | 0.00 | 58 | 1010.5 |
| 20260503205005 | 66 | 230 | 4.0 | 11.0 | 0.00 | 0.00 | 0.00 | 58 | 1010.6 |
| 20260503204945 | 66 | 251 | 3.0 | 9.0 | 0.00 | 0.00 | 0.00 | 57 | 1010.6 |
| 20260503203946 | 67 | 207 | 3.0 | 10.0 | 0.00 | 0.00 | 0.00 | 57 | 1010.6 |
| 20260503203445 | 66 | 236 | 4.0 | 10.0 | 0.00 | 0.00 | 0.00 | 57 | 1010.6 |
| 20260503202945 | 67 | 205 | 3.0 | 6.0 | 0.00 | 0.00 | 0.00 | 56 | 1010.5 |
| 20260503202448 | 67 | 240 | 3.0 | 6.0 | 0.00 | 0.00 | 0.00 | 56 | 1010.5 |
| 20260503201944 | 67 | 198 | 3.0 | 10.0 | 0.00 | 0.00 | 0.00 | 56 | 1010.7 |
| 20260503201445 | 68 | 201 | 4.0 | 10.0 | 0.00 | 0.00 | 0.00 | 56 | 1010.7 |
| 20260503200943 | 68 | 236 | 4.0 | 9.0 | 0.00 | 0.00 | 0.00 | 56 | 1010.7 |
| 20260503200447 | 67 | 254 | 4.0 | 7.0 | 0.00 | 0.00 | 0.00 | 56 | 1010.8 |
| 20260503194958 | 69 | 145 | 4.0 | 7.0 | 0.00 | 0.00 | 0.00 | 55 | 1010.9 |
| 20260503194504 | 69 | 246 | 4.0 | 2.0 | 0.00 | 0.00 | 0.00 | 56 | 1011.1 |
| 20260503193001 | 67 | 223 | 5.0 | 10.0 | 0.00 | 0.00 | 0.00 | 57 | 1011.1 |
| 20260503192504 | 66 | 169 | 6.0 | 12.0 | 0.00 | 0.00 | 0.00 | 57 | 1011.1 |
| 20260503192000 | 66 | 257 | 5.0 | 12.0 | 0.00 | 0.00 | 0.00 | 58 | 1010.9 |
| 20260503191505 | 66 | 225 | 4.0 | 9.0 | 0.00 | 0.00 | 0.00 | 58 | 1011.0 |
| 20260503191005 | 65 | 234 | 4.0 | 12.0 | 0.00 | 0.00 | 0.00 | 59 | 1011.2 |
| 20260503190237 | 64 | 209 | 4.0 | 10.0 | 0.00 | 0.00 | 0.00 | 65 | 1011.3 |
| 20260503185457 | 65 | 194 | 3.0 | 10.0 | 0.00 | 0.00 | 0.00 | 63 | 1011.1 |
| 20260503184501 | 62 | 222 | 4.0 | 9.0 | 0.00 | 0.00 | 0.00 | 67 | 1011.3 |
| 20260503183957 | 62 | 210 | 4.0 | 5.0 | 0.00 | 0.00 | 0.00 | 67 | 1011.2 |
| 20260503182946 | 59 | 261 | 4.0 | 10.0 | 0.00 | 0.00 | 0.00 | 71 | 1011.1 |
| 20260503181944 | 59 | 195 | 4.0 | 10.0 | 0.00 | 0.00 | 0.00 | 72 | 1011.2 |
| 20260503181449 | 60 | 202 | 3.0 | 11.0 | 0.00 | 0.00 | 0.00 | 71 | 1010.7 |
| 20260503181445 | 59 | 183 | 3.0 | 9.0 | 0.00 | 0.00 | 0.00 | 72 | 1011.0 |
| 20260503180942 | 59 | 259 | 3.0 | 7.0 | 0.00 | 0.00 | 0.00 | 70 | 1011.2 |
| 20260503175944 | 60 | 188 | 3.0 | 11.0 | 0.00 | 0.00 | 0.00 | 71 | 1011.1 |
| 20260503175445 | 60 | 205 | 4.0 | 1.0 | 0.00 | 0.00 | 0.00 | 71 | 1011.1 |
| 20260503174508 | 61 | 250 | 5.0 | 12.0 | 0.00 | 0.00 | 0.00 | 69 | 1010.9 |
| 20260503173507 | 61 | 183 | 3.0 | 12.0 | 0.00 | 0.00 | 0.00 | 70 | 1010.9 |
| 20260503173007 | 60 | 196 | 3.0 | 6.0 | 0.00 | 0.00 | 0.00 | 72 | 1010.7 |
| 20260503172504 | 59 | 179 | 4.0 | 10.0 | 0.00 | 0.00 | 0.00 | 73 | 1011.0 |
| 20260503172006 | 58 | 217 | 3.0 | 10.0 | 0.00 | 0.00 | 0.00 | 73 | 1010.9 |
| 20260503171512 | 59 | 222 | 3.0 | 11.0 | 0.00 | 0.00 | 0.00 | 73 | 1010.7 |
| 20260503171001 | 59 | 213 | 3.0 | 11.0 | 0.00 | 0.00 | 0.00 | 73 | 1010.6 |
| 20260503170508 | 59 | 165 | 3.0 | 10.0 | 0.00 | 0.00 | 0.00 | 72 | 1010.8 |
| 20260503170503 | 59 | 209 | 3.0 | 10.0 | 0.00 | 0.00 | 0.00 | 73 | 1010.8 |
| 20260503150305 | 55 | 161 | 4.0 | 7.0 | 0.00 | 0.00 | 0.00 | 81 | 1009.4 |